TimeCDT,TemperatureF,Dew PointF,Humidity,Sea Level PressureIn,VisibilityMPH,Wind Direction,Wind SpeedMPH,Gust SpeedMPH,PrecipitationIn,Events,Conditions,WindDirDegrees,DateUTC
12:15 AM,55.4,44.6,67,29.96,10.0,South,16.1,-,N/A,,Clear,170,2013-04-28 05:15:00
12:35 AM,57.2,44.6,63,29.96,10.0,South,17.3,25.3,N/A,,Clear,170,2013-04-28 05:35:00
12:55 AM,55.4,44.6,67,29.96,10.0,South,16.1,23.0,N/A,,Clear,190,2013-04-28 05:55:00
1:15 AM,55.4,44.6,67,29.96,10.0,South,15.0,20.7,N/A,,Clear,190,2013-04-28 06:15:00
1:35 AM,53.6,44.6,72,29.95,10.0,SSW,11.5,17.3,N/A,,Clear,200,2013-04-28 06:35:00
1:55 AM,53.6,44.6,72,29.95,10.0,SSW,11.5,19.6,N/A,,Clear,200,2013-04-28 06:55:00
2:15 AM,53.6,42.8,67,29.94,10.0,SSW,11.5,-,N/A,,Clear,210,2013-04-28 07:15:00
2:35 AM,51.8,41.0,67,29.93,10.0,SSW,12.7,-,N/A,,Clear,210,2013-04-28 07:35:00
2:55 AM,51.8,39.2,62,29.93,10.0,SW,11.5,-,N/A,,Clear,230,2013-04-28 07:55:00
3:15 AM,50.0,37.4,62,29.93,10.0,SW,9.2,-,N/A,,Clear,230,2013-04-28 08:15:00
3:35 AM,46.4,35.6,66,29.92,10.0,WSW,8.1,-,N/A,,Clear,250,2013-04-28 08:35:00
3:55 AM,44.6,35.6,71,29.92,10.0,WSW,6.9,-,N/A,,Clear,240,2013-04-28 08:55:00
4:15 AM,42.8,35.6,76,29.92,10.0,WSW,8.1,-,N/A,,Clear,250,2013-04-28 09:15:00
4:35 AM,41.0,35.6,81,29.91,10.0,WSW,9.2,-,N/A,,Clear,250,2013-04-28 09:35:00
4:55 AM,41.0,33.8,76,29.91,10.0,WSW,8.1,-,N/A,,Clear,250,2013-04-28 09:55:00
5:15 AM,41.0,33.8,76,29.91,10.0,West,6.9,-,N/A,,Clear,260,2013-04-28 10:15:00
5:35 AM,41.0,33.8,76,29.91,10.0,West,8.1,-,N/A,,Clear,260,2013-04-28 10:35:00
5:55 AM,41.0,33.8,76,29.91,10.0,West,9.2,-,N/A,,Clear,270,2013-04-28 10:55:00
6:15 AM,41.0,33.8,76,29.91,10.0,West,9.2,-,N/A,,Clear,270,2013-04-28 11:15:00
6:35 AM,41.0,33.8,76,29.91,10.0,West,8.1,-,N/A,,Clear,260,2013-04-28 11:35:00
6:55 AM,41.0,33.8,76,29.91,10.0,West,8.1,-,N/A,,Clear,260,2013-04-28 11:55:00
7:15 AM,42.8,33.8,70,29.91,10.0,West,6.9,-,N/A,,Clear,270,2013-04-28 12:15:00
7:35 AM,44.6,35.6,71,29.91,10.0,West,9.2,-,N/A,,Clear,270,2013-04-28 12:35:00
7:55 AM,50.0,35.6,58,29.91,10.0,West,10.4,-,N/A,,Clear,270,2013-04-28 12:55:00
8:15 AM,53.6,35.6,51,29.91,10.0,West,11.5,-,N/A,,Clear,260,2013-04-28 13:15:00
8:35 AM,53.6,35.6,51,29.91,10.0,West,11.5,-,N/A,,Clear,260,2013-04-28 13:35:00
8:55 AM,59.0,35.6,42,29.91,10.0,West,13.8,-,N/A,,Clear,270,2013-04-28 13:55:00
9:15 AM,62.6,35.6,37,29.90,10.0,West,13.8,-,N/A,,Clear,280,2013-04-28 14:15:00
9:35 AM,68.0,35.6,30,29.89,10.0,West,15.0,-,N/A,,Clear,270,2013-04-28 14:35:00
9:55 AM,71.6,35.6,27,29.89,10.0,West,16.1,-,N/A,,Clear,270,2013-04-28 14:55:00
10:15 AM,73.4,35.6,25,29.88,10.0,West,16.1,-,N/A,,Clear,280,2013-04-28 15:15:00
10:35 AM,77.0,35.6,22,29.88,10.0,West,19.6,-,N/A,,Clear,280,2013-04-28 15:35:00
10:55 AM,80.6,35.6,20,29.88,10.0,WNW,21.9,26.5,N/A,,Clear,300,2013-04-28 15:55:00
11:15 AM,80.6,35.6,20,29.87,10.0,West,23.0,31.1,N/A,,Clear,280,2013-04-28 16:15:00
11:35 AM,80.6,35.6,20,29.87,10.0,NW,16.1,25.3,N/A,,Clear,310,2013-04-28 16:35:00
11:55 AM,80.6,35.6,20,29.87,10.0,WNW,16.1,26.5,N/A,,Clear,300,2013-04-28 16:55:00
12:15 PM,82.4,35.6,19,29.86,10.0,WNW,18.4,28.8,N/A,,Clear,300,2013-04-28 17:15:00
12:35 PM,82.4,35.6,19,29.86,10.0,NW,13.8,26.5,N/A,,Clear,310,2013-04-28 17:35:00
12:55 PM,84.2,35.6,18,29.85,10.0,West,18.4,21.9,N/A,,Clear,260,2013-04-28 17:55:00
1:15 PM,82.4,33.8,17,29.84,10.0,West,12.7,19.6,N/A,,Clear,280,2013-04-28 18:15:00
1:35 PM,86.0,33.8,15,29.84,10.0,WSW,15.0,21.9,N/A,,Clear,240,2013-04-28 18:35:00
1:55 PM,86.0,33.8,15,29.82,10.0,West,19.6,32.2,N/A,,Clear,260,2013-04-28 18:55:00
2:15 PM,86.0,33.8,15,29.82,10.0,WSW,20.7,28.8,N/A,,Clear,240,2013-04-28 19:15:00
2:35 PM,86.0,33.8,15,29.81,10.0,West,13.8,29.9,N/A,,Clear,280,2013-04-28 19:35:00
2:55 PM,86.0,33.8,15,29.81,10.0,West,19.6,24.2,N/A,,Clear,270,2013-04-28 19:55:00
3:15 PM,87.8,33.8,15,29.80,10.0,WSW,16.1,19.6,N/A,,Clear,240,2013-04-28 20:15:00
3:35 PM,87.8,35.6,16,29.79,10.0,WNW,16.1,26.5,N/A,,Clear,300,2013-04-28 20:35:00
3:55 PM,87.8,33.8,15,29.79,10.0,WSW,11.5,26.5,N/A,,Clear,250,2013-04-28 20:55:00
4:15 PM,87.8,33.8,15,29.78,10.0,WSW,19.6,27.6,N/A,,Clear,240,2013-04-28 21:15:00
4:35 PM,87.8,33.8,15,29.77,10.0,West,12.7,28.8,N/A,,Clear,260,2013-04-28 21:35:00
4:55 PM,87.8,33.8,15,29.77,10.0,West,15.0,19.6,N/A,,Clear,270,2013-04-28 21:55:00
5:15 PM,87.8,33.8,15,29.76,10.0,West,12.7,17.3,N/A,,Clear,280,2013-04-28 22:15:00
5:35 PM,87.8,33.8,15,29.76,10.0,WNW,11.5,21.9,N/A,,Clear,290,2013-04-28 22:35:00
5:55 PM,86.0,33.8,15,29.76,10.0,West,13.8,23.0,N/A,,Clear,270,2013-04-28 22:55:00
6:15 PM,86.0,33.8,15,29.75,10.0,WNW,11.5,17.3,N/A,,Clear,300,2013-04-28 23:15:00
6:35 PM,86.0,33.8,15,29.75,10.0,Calm,Calm,-,N/A,,Clear,0,2013-04-28 23:35:00
6:55 PM,84.2,35.6,18,29.75,10.0,WNW,8.1,-,N/A,,Clear,300,2013-04-28 23:55:00
7:15 PM,82.4,33.8,17,29.75,10.0,WNW,8.1,-,N/A,,Clear,290,2013-04-29 00:15:00
7:35 PM,80.6,33.8,18,29.75,10.0,NNW,9.2,-,N/A,,Clear,330,2013-04-29 00:35:00
7:55 PM,78.8,35.6,21,29.75,10.0,NNW,6.9,-,N/A,,Clear,340,2013-04-29 00:55:00
8:15 PM,75.2,33.8,22,29.75,10.0,NNW,5.8,-,N/A,,Clear,340,2013-04-29 01:15:00
8:35 PM,73.4,32.0,22,29.75,10.0,North,8.1,-,N/A,,Clear,360,2013-04-29 01:35:00
8:55 PM,71.6,32.0,23,29.76,10.0,North,12.7,-,N/A,,Clear,360,2013-04-29 01:55:00
9:15 PM,68.0,33.8,28,29.78,10.0,NNE,15.0,-,N/A,,Clear,30,2013-04-29 02:15:00
9:35 PM,68.0,37.4,33,29.79,10.0,NNE,12.7,-,N/A,,Clear,30,2013-04-29 02:35:00
9:55 PM,64.4,37.4,37,29.80,10.0,NE,11.5,-,N/A,,Clear,40,2013-04-29 02:55:00
10:15 PM,62.6,37.4,39,29.82,10.0,NE,10.4,-,N/A,,Clear,40,2013-04-29 03:15:00
10:35 PM,59.0,37.4,45,29.82,10.0,ENE,10.4,-,N/A,,Clear,60,2013-04-29 03:35:00
10:55 PM,55.4,37.4,51,29.84,10.0,ENE,9.2,-,N/A,,Clear,70,2013-04-29 03:55:00
11:15 PM,53.6,37.4,54,29.84,10.0,NE,11.5,-,N/A,,Clear,40,2013-04-29 04:15:00
11:35 PM,59.0,37.4,45,29.84,10.0,NE,13.8,-,N/A,,Clear,50,2013-04-29 04:35:00
11:55 PM,59.0,37.4,45,29.85,10.0,NE,12.7,-,N/A,,Clear,40,2013-04-29 04:55:00